| time (UTC) | temp F | wind direction | speed MPH | gust MPH | rain 1hr in | rain 24hr in | rain mn in | humidity % | barometer mb |
| 20260507043521 | 59 | 161 | 2.0 | 4.0 | 0.00 | 0.00 | 0.00 | 56 | 1008.9 |
| 20260507042528 | 59 | 242 | 1.0 | 3.0 | 0.00 | 0.00 | 0.00 | 57 | 1008.9 |
| 20260507041520 | 59 | 327 | 2.0 | 4.0 | 0.00 | 0.00 | 0.00 | 57 | 1008.8 |
| 20260507040528 | 59 | 272 | 2.0 | 4.0 | 0.00 | 0.00 | 0.00 | 58 | 1008.6 |
| 20260507035536 | 59 | 2 | 2.0 | 4.0 | 0.00 | 0.00 | 0.00 | 57 | 1008.4 |
| 20260507034520 | 60 | 37 | 2.0 | 5.0 | 0.00 | 0.00 | 0.00 | 57 | 1008.5 |
| 20260507033528 | 60 | 154 | 2.0 | 3.0 | 0.00 | 0.00 | 0.00 | 56 | 1008.4 |
| 20260507032520 | 60 | 324 | 1.0 | 4.0 | 0.00 | 0.00 | 0.00 | 56 | 1008.4 |
| 20260507031528 | 59 | 296 | 2.0 | 3.0 | 0.00 | 0.00 | 0.00 | 58 | 1008.4 |
| 20260507030521 | 59 | 184 | 2.0 | 4.0 | 0.00 | 0.00 | 0.00 | 58 | 1008.2 |
| 20260507025528 | 59 | 12 | 1.0 | 4.0 | 0.00 | 0.00 | 0.00 | 58 | 1008.2 |
| 20260507024520 | 60 | 315 | 1.0 | 4.0 | 0.00 | 0.00 | 0.00 | 58 | 1008.1 |
| 20260507023528 | 60 | 321 | 2.0 | 6.0 | 0.00 | 0.00 | 0.00 | 57 | 1008.2 |
| 20260507022520 | 60 | 222 | 2.0 | 4.0 | 0.00 | 0.00 | 0.00 | 57 | 1008.1 |
| 20260507021519 | 60 | 332 | 1.0 | 4.0 | 0.00 | 0.00 | 0.00 | 57 | 1008.1 |
| 20260507020521 | 60 | 301 | 2.0 | 5.0 | 0.00 | 0.00 | 0.00 | 57 | 1008.0 |
| 20260507015528 | 60 | 249 | 1.0 | 4.0 | 0.00 | 0.00 | 0.00 | 56 | 1008.1 |
| 20260507014520 | 60 | 320 | 1.0 | 4.0 | 0.00 | 0.00 | 0.00 | 56 | 1008.1 |
| 20260507013528 | 60 | 300 | 1.0 | 5.0 | 0.00 | 0.00 | 0.00 | 56 | 1007.9 |
| 20260507012520 | 60 | 311 | 2.0 | 6.0 | 0.00 | 0.00 | 0.00 | 55 | 1007.8 |
| 20260507011528 | 60 | 312 | 2.0 | 6.0 | 0.00 | 0.00 | 0.00 | 56 | 1008.0 |
| 20260507010520 | 61 | 306 | 1.0 | 5.0 | 0.00 | 0.00 | 0.00 | 56 | 1007.7 |
| 20260507005521 | 61 | 318 | 2.0 | 4.0 | 0.00 | 0.00 | 0.00 | 56 | 1007.7 |
| 20260507004529 | 61 | 336 | 2.0 | 4.0 | 0.00 | 0.00 | 0.00 | 56 | 1007.7 |
| 20260507003521 | 61 | 327 | 1.0 | 7.0 | 0.00 | 0.00 | 0.00 | 56 | 1007.6 |
| 20260507002529 | 61 | 303 | 3.0 | 6.0 | 0.00 | 0.00 | 0.00 | 57 | 1007.6 |
| 20260507001521 | 61 | 317 | 2.0 | 5.0 | 0.00 | 0.00 | 0.00 | 58 | 1007.5 |
| 20260507000529 | 61 | 327 | 2.0 | 6.0 | 0.00 | 0.00 | 0.00 | 60 | 1007.4 |
| 20260506235529 | 61 | 320 | 2.0 | 4.0 | 0.00 | 0.00 | 0.00 | 62 | 1007.3 |
| 20260506234521 | 61 | 309 | 2.0 | 6.0 | 0.00 | 0.00 | 0.00 | 63 | 1007.2 |
| 20260506233529 | 61 | 319 | 1.0 | 4.0 | 0.00 | 0.00 | 0.00 | 63 | 1007.0 |
| 20260506232521 | 61 | 333 | 1.0 | 4.0 | 0.00 | 0.00 | 0.00 | 63 | 1006.9 |
| 20260506231529 | 60 | 45 | 1.0 | 2.0 | 0.00 | 0.00 | 0.00 | 62 | 1006.9 |
| 20260506230520 | 59 | 71 | 1.0 | 3.0 | 0.00 | 0.00 | 0.00 | 65 | 1006.8 |
| 20260506225529 | 59 | 130 | 1.0 | 3.0 | 0.00 | 0.00 | 0.00 | 65 | 1006.8 |
| 20260506224530 | 59 | 67 | 2.0 | 4.0 | 0.00 | 0.00 | 0.00 | 64 | 1006.6 |
| 20260506223521 | 60 | 80 | 1.0 | 2.0 | 0.00 | 0.00 | 0.00 | 63 | 1006.3 |
| 20260506222529 | 59 | 55 | 1.0 | 4.0 | 0.00 | 0.00 | 0.00 | 63 | 1006.1 |
| 20260506221521 | 61 | 9 | 1.0 | 2.0 | 0.00 | 0.00 | 0.00 | 62 | 1005.9 |
| 20260506220528 | 62 | 96 | 1.0 | 3.0 | 0.00 | 0.00 | 0.00 | 59 | 1005.6 |
| 20260506215529 | 62 | 159 | 3.0 | 5.0 | 0.00 | 0.00 | 0.00 | 59 | 1005.5 |
| 20260506214521 | 63 | 137 | 1.0 | 2.0 | 0.00 | 0.00 | 0.00 | 58 | 1005.2 |
| 20260506213529 | 63 | 157 | 3.0 | 7.0 | 0.00 | 0.00 | 0.00 | 57 | 1005.2 |
| 20260506212520 | 63 | 164 | 4.0 | 7.0 | 0.00 | 0.00 | 0.00 | 58 | 1004.9 |
| 20260506211529 | 64 | 162 | 4.0 | 7.0 | 0.00 | 0.00 | 0.00 | 57 | 1004.9 |
| 20260506210520 | 64 | 172 | 5.0 | 10.0 | 0.00 | 0.00 | 0.00 | 57 | 1004.7 |
| 20260506205529 | 64 | 161 | 5.0 | 12.0 | 0.00 | 0.00 | 0.00 | 57 | 1004.6 |
| 20260506204521 | 64 | 165 | 4.0 | 11.0 | 0.00 | 0.00 | 0.00 | 56 | 1004.4 |
| 20260506203528 | 65 | 160 | 4.0 | 10.0 | 0.00 | 0.00 | 0.00 | 55 | 1004.4 |
| 20260506202521 | 65 | 171 | 5.0 | 11.0 | 0.00 | 0.00 | 0.00 | 55 | 1004.4 |
| 20260506201520 | 65 | 155 | 5.0 | 11.0 | 0.00 | 0.00 | 0.00 | 54 | 1004.3 |
| 20260506200521 | 66 | 141 | 3.0 | 9.0 | 0.00 | 0.00 | 0.00 | 53 | 1004.3 |
| 20260506195529 | 65 | 168 | 5.0 | 14.0 | 0.00 | 0.00 | 0.00 | 54 | 1004.2 |
| 20260506194521 | 65 | 135 | 5.0 | 9.0 | 0.00 | 0.00 | 0.00 | 55 | 1004.1 |
| 20260506193528 | 66 | 134 | 5.0 | 11.0 | 0.00 | 0.00 | 0.00 | 54 | 1003.9 |
| 20260506192521 | 66 | 141 | 6.0 | 12.0 | 0.00 | 0.00 | 0.00 | 54 | 1004.0 |
| 20260506191529 | 67 | 150 | 4.0 | 13.0 | 0.00 | 0.00 | 0.00 | 53 | 1003.9 |
| 20260506190520 | 67 | 175 | 5.0 | 12.0 | 0.00 | 0.00 | 0.00 | 53 | 1003.8 |
| 20260506185530 | 67 | 168 | 7.0 | 18.0 | 0.00 | 0.00 | 0.00 | 52 | 1003.5 |
| 20260506184530 | 68 | 163 | 6.0 | 17.0 | 0.00 | 0.00 | 0.00 | 51 | 1003.5 |
| 20260506183521 | 68 | 175 | 6.0 | 13.0 | 0.00 | 0.00 | 0.00 | 50 | 1003.4 |
| 20260506182529 | 68 | 177 | 7.0 | 18.0 | 0.00 | 0.00 | 0.00 | 51 | 1003.2 |
| 20260506181521 | 68 | 175 | 9.0 | 15.0 | 0.00 | 0.00 | 0.00 | 51 | 1003.2 |
| 20260506180529 | 68 | 177 | 9.0 | 22.0 | 0.00 | 0.00 | 0.00 | 50 | 1003.1 |
| 20260506175522 | 69 | 175 | 10.0 | 22.0 | 0.00 | 0.00 | 0.00 | 50 | 1003.0 |
| 20260506174529 | 69 | 176 | 9.0 | 19.0 | 0.00 | 0.00 | 0.00 | 49 | 1003.0 |
| 20260506173521 | 70 | 175 | 9.0 | 19.0 | 0.00 | 0.00 | 0.00 | 48 | 1003.0 |
| 20260506172529 | 70 | 172 | 8.0 | 17.0 | 0.00 | 0.00 | 0.00 | 47 | 1003.0 |
| 20260506171521 | 70 | 174 | 6.0 | 13.0 | 0.00 | 0.00 | 0.00 | 47 | 1003.1 |
| 20260506170529 | 71 | 165 | 7.0 | 18.0 | 0.00 | 0.00 | 0.00 | 46 | 1003.4 |
| 20260506165529 | 71 | 164 | 8.0 | 18.0 | 0.00 | 0.00 | 0.00 | 46 | 1003.2 |
| 20260506164522 | 72 | 179 | 8.0 | 22.0 | 0.00 | 0.00 | 0.00 | 45 | 1003.4 |
| 20260506163530 | 72 | 163 | 7.0 | 16.0 | 0.00 | 0.00 | 0.00 | 44 | 1003.4 |
| 20260506162521 | 73 | 171 | 6.0 | 17.0 | 0.00 | 0.00 | 0.00 | 43 | 1003.7 |
| 20260506161529 | 73 | 164 | 7.0 | 18.0 | 0.00 | 0.00 | 0.00 | 42 | 1003.8 |
| 20260506160521 | 74 | 166 | 6.0 | 17.0 | 0.00 | 0.00 | 0.00 | 42 | 1003.7 |
| 20260506155529 | 74 | 166 | 7.0 | 16.0 | 0.00 | 0.00 | 0.00 | 42 | 1003.7 |
| 20260506154521 | 74 | 168 | 6.0 | 14.0 | 0.00 | 0.00 | 0.00 | 43 | 1003.7 |
| 20260506153529 | 73 | 177 | 10.0 | 19.0 | 0.00 | 0.00 | 0.00 | 43 | 1003.7 |
| 20260506152521 | 74 | 161 | 9.0 | 22.0 | 0.00 | 0.00 | 0.00 | 43 | 1003.8 |
| 20260506151529 | 74 | 169 | 10.0 | 22.0 | 0.00 | 0.00 | 0.00 | 43 | 1004.0 |
| 20260506150521 | 74 | 168 | 9.0 | 25.0 | 0.00 | 0.00 | 0.00 | 43 | 1003.9 |
| 20260506145529 | 74 | 174 | 8.0 | 21.0 | 0.00 | 0.00 | 0.00 | 42 | 1004.0 |
| 20260506144521 | 75 | 158 | 8.0 | 23.0 | 0.00 | 0.00 | 0.00 | 41 | 1003.9 |
| 20260506143522 | 75 | 165 | 9.0 | 23.0 | 0.00 | 0.00 | 0.00 | 40 | 1004.0 |
| 20260506142529 | 75 | 168 | 10.0 | 23.0 | 0.00 | 0.00 | 0.00 | 39 | 1004.1 |
| 20260506141521 | 76 | 165 | 10.0 | 19.0 | 0.00 | 0.00 | 0.00 | 37 | 1004.1 |
| 20260506140530 | 76 | 175 | 9.0 | 24.0 | 0.00 | 0.00 | 0.00 | 37 | 1004.0 |
| 20260506135530 | 77 | 173 | 8.0 | 18.0 | 0.00 | 0.00 | 0.00 | 36 | 1003.9 |
| 20260506134529 | 77 | 168 | 8.0 | 23.0 | 0.00 | 0.00 | 0.00 | 36 | 1004.0 |
| 20260506133521 | 77 | 171 | 8.0 | 17.0 | 0.00 | 0.00 | 0.00 | 36 | 1004.0 |
| 20260506132529 | 77 | 178 | 8.0 | 20.0 | 0.00 | 0.00 | 0.00 | 36 | 1004.0 |
| 20260506131521 | 78 | 164 | 7.0 | 17.0 | 0.00 | 0.00 | 0.00 | 35 | 1003.9 |
| 20260506130529 | 77 | 156 | 8.0 | 19.0 | 0.00 | 0.00 | 0.00 | 36 | 1004.0 |
| 20260506125529 | 77 | 162 | 7.0 | 15.0 | 0.00 | 0.00 | 0.00 | 35 | 1004.3 |
| 20260506124522 | 77 | 168 | 7.0 | 18.0 | 0.00 | 0.00 | 0.00 | 34 | 1004.2 |
| 20260506123530 | 77 | 179 | 7.0 | 16.0 | 0.00 | 0.00 | 0.00 | 34 | 1004.4 |
| 20260506122522 | 76 | 167 | 6.0 | 17.0 | 0.00 | 0.00 | 0.00 | 35 | 1004.4 |
| 20260506121529 | 76 | 162 | 7.0 | 17.0 | 0.00 | 0.00 | 0.00 | 35 | 1004.3 |
| 20260506120521 | 76 | 139 | 7.0 | 15.0 | 0.00 | 0.00 | 0.00 | 35 | 1004.5 |
| 20260506115522 | 77 | 154 | 8.0 | 19.0 | 0.00 | 0.00 | 0.00 | 35 | 1004.5 |
| 20260506114529 | 76 | 146 | 6.0 | 18.0 | 0.00 | 0.00 | 0.00 | 35 | 1004.7 |
| 20260506113522 | 76 | 166 | 6.0 | 14.0 | 0.00 | 0.00 | 0.00 | 34 | 1004.9 |
| 20260506112530 | 77 | 144 | 7.0 | 20.0 | 0.00 | 0.00 | 0.00 | 33 | 1005.0 |
| 20260506111521 | 77 | 156 | 7.0 | 15.0 | 0.00 | 0.00 | 0.00 | 32 | 1005.2 |
| 20260506110530 | 77 | 166 | 5.0 | 14.0 | 0.00 | 0.00 | 0.00 | 33 | 1005.2 |
| 20260506105530 | 75 | 132 | 8.0 | 15.0 | 0.00 | 0.00 | 0.00 | 33 | 1005.5 |
| 20260506104522 | 75 | 141 | 7.0 | 17.0 | 0.00 | 0.00 | 0.00 | 32 | 1005.7 |
| 20260506103529 | 75 | 141 | 8.0 | 19.0 | 0.00 | 0.00 | 0.00 | 38 | 1005.9 |
| 20260506102522 | 74 | 140 | 6.0 | 17.0 | 0.00 | 0.00 | 0.00 | 40 | 1006.1 |
| 20260506101529 | 73 | 134 | 7.0 | 15.0 | 0.00 | 0.00 | 0.00 | 41 | 1006.1 |
| 20260506100521 | 73 | 125 | 8.0 | 15.0 | 0.00 | 0.00 | 0.00 | 42 | 1006.4 |
| 20260506095522 | 72 | 131 | 9.0 | 23.0 | 0.00 | 0.00 | 0.00 | 42 | 1006.7 |
| 20260506094530 | 71 | 136 | 8.0 | 15.0 | 0.00 | 0.00 | 0.00 | 45 | 1006.7 |
| 20260506093521 | 72 | 149 | 6.0 | 17.0 | 0.00 | 0.00 | 0.00 | 45 | 1006.9 |
| 20260506092522 | 72 | 116 | 6.0 | 17.0 | 0.00 | 0.00 | 0.00 | 44 | 1007.0 |
| 20260506091530 | 72 | 140 | 7.0 | 15.0 | 0.00 | 0.00 | 0.00 | 44 | 1007.1 |
| 20260506090522 | 72 | 120 | 7.0 | 13.0 | 0.00 | 0.00 | 0.00 | 43 | 1007.2 |
| 20260506085530 | 72 | 110 | 6.0 | 14.0 | 0.00 | 0.00 | 0.00 | 43 | 1007.2 |
| 20260506084521 | 72 | 130 | 6.0 | 14.0 | 0.00 | 0.00 | 0.00 | 41 | 1007.2 |
| 20260506083530 | 72 | 129 | 5.0 | 11.0 | 0.00 | 0.00 | 0.00 | 41 | 1007.2 |
| 20260506082521 | 72 | 144 | 4.0 | 9.0 | 0.00 | 0.00 | 0.00 | 42 | 1007.2 |
| 20260506081529 | 72 | 141 | 4.0 | 10.0 | 0.00 | 0.00 | 0.00 | 41 | 1007.0 |
| 20260506080522 | 73 | 168 | 3.0 | 6.0 | 0.00 | 0.00 | 0.00 | 40 | 1007.2 |
| 20260506072522 | 70 | 150 | 2.0 | 5.0 | 0.00 | 0.00 | 0.00 | 44 | 1007.3 |
| 20260506071530 | 70 | 138 | 3.0 | 6.0 | 0.00 | 0.00 | 0.00 | 43 | 1007.4 |
| 20260506070522 | 69 | 157 | 3.0 | 5.0 | 0.00 | 0.00 | 0.00 | 45 | 1007.6 |
| 20260506061530 | 69 | 110 | 0.0 | 2.0 | 0.00 | 0.00 | 0.00 | 49 | 1007.6 |
| 20260506060522 | 67 | 274 | 0.0 | 3.0 | 0.00 | 0.00 | 0.00 | 52 | 1007.7 |
| 20260506050522 | 61 | 107 | 1.0 | 4.0 | 0.00 | 0.00 | 0.00 | 64 | 1007.8 |
| 20260506044523 | 60 | 66 | 2.0 | 5.0 | 0.00 | 0.00 | 0.00 | 63 | 1007.7 |